Location: Kaarina
(60.4167°N, 22.4167°E)
Time: 02:14:22
(UTC+03:00)

ATLAS 2AS CENTAUR R/B - Pass Details

Date: 24 August 2019
Orbit: 919 x 1292 km, 63.6° (Epoch: 21 September)

Event Time Altitude Azimuth Distance (km) Brightness Sun altitude
Rises 21:50:37 0° 264° (W) 4,271 6.7 -6.2°
Reaches altitude 10° 21:53:28 10° 266° (W) 3,305 6.1 -6.5°
Maximum altitude 22:01:35 72° 351° (N) 1,333 3.4 -7.3°
Drops below altitude 10° 22:09:21 10° 77° (ENE) 3,176 4.8 -8.1°
Sets 22:12:03 0° 79° (E) 4,097 5.4 -8.3°
